User: anonymous
Location: Luz Observatory
(34.5000°N, 117.2833°W)
Time: 00:04:23
(UTC-07:00)
Language:

Cosmos 1452 Rocket - Orbit

View from above orbital plane
View from above orbital plane
View from above satellite
View from above satellite

Ground track
Ground track

The orbit data is extracted from the following two-line orbital elements,

1 13992U 83031B   14245.14297609  .00000083  00000-0  37705-4 0  4928
2 13992 074.0522 075.8540 0005825 305.4445 193.7812 14.35764660642533
Epoch (UTC): 02 September 2014 03:25:53
Eccentricity: 0.0005825
inclination: 74.0522°
perigee height: 768 km
apogee height: 776 km
right ascension of ascending node: 75.8540°
argument of perigee: 305.4445°
revolutions per day: 14.35764660
mean anomaly at epoch: 193.7812°
orbit number at epoch: 64253

The dashed part of the orbit path shows where the satellite is in the earth's shadow,  

DLR